www.pogodaiklimat.ru

Погода и климат >> Архив погоды >> Португалия >> Визеу


ПОГОДА в Визеу

  • Прогноз погоды в Визеу
  • Монитор погоды в Визеу

АРХИВ ПОГОДЫ в Визеу

Время (UTC), дата Ветер
(напр.,м/с)
 
Видим.   Явления Облачность Т
(С)
Тd
(С)
f
(%)
Тe
(С)
Тes
(С)
Комфортность P
(гПа)
Po
(гПа)
Тmin
(С)
Tmax
(С)
R
(мм)
R24
(мм)
S
(см)
16 14.07 З 5 н/о н/о +27.3 +18.6 59 +32 +32 очень
душно
1012.5 941.7
17 14.07 З 5 н/о н/о +26.8 +19.2 63 +32 +32 очень
душно
1012.8 941.7
18 14.07 З 6 н/о н/о +24.4 +18.1 68 +29 +29 душно 1013.4 941.8 +30.0
19 14.07 СЗ 5 н/о н/о +22.4 +17.0 72 +27 +27 душно 1014.0 941.8
20 14.07 З 2 н/о н/о +20.1 +16.0 77 +23 +23 комфорт 1014.8 942.1
21 14.07 Ю 2 н/о н/о +18.2 +18.2 100 +19 +19 1015.6 942.4
22 14.07 ЮВ 2 н/о н/о +17.2 +17.2 100 +17 +17 1016.1 942.6
23 14.07 ЮВ 1 н/о н/о +16.9 +16.9 100 +18 +18 1016.1 942.5
00 15.07 С 1 н/о н/о +16.5 +16.5 100 +17 +17 1016.2 942.6
01 15.07 ЮВ 1 н/о н/о +16.4 +16.4 100 +17 +17 1015.9 942.2
02 15.07 ЮВ 2 н/о н/о +15.1 +15.0 99 +15 +15 1015.8 941.8
03 15.07 СВ 1 н/о н/о +13.3 +13.3 100 +13 +13 1016.0 941.5
04 15.07 С 1 н/о н/о +13.5 +13.5 100 +14 +14 1015.9 941.5
05 15.07 С 2 н/о н/о +13.2 +13.2 100 +12 +12 1016.0 941.5
06 15.07 СВ 2 н/о н/о +14.9 +14.9 100 +14 +14 1015.5 941.4 +12.7 0.1
07 15.07 СЗ 3 8000 м дымка 9/9 210 м
[St]
+13.7 +13.7 100 +12 +12 1016.1 941.8
08 15.07 З 1 12 км 9/9 210 м
[St]
+15.2 +15.2 100 +16 +16 1016.3 942.3
09 15.07 Ю 2 12 км 9/9 210 м
[St]
+16.5 +16.5 100 +17 +18 1016.1 942.4
10 15.07 Ю 2 20 км 4/4 240 м
[St]
+20.5 +17.5 83 +25 +33 комфорт 1015.0 942.4
11 15.07 Ю 2 25 км 1/0
[Ac cast]
+23.2 +17.7 71 +29 +45 душно 1014.6 942.4
12 15.07 З 2 25 км 3/1 500 м
[Cu med, cong Ci sp]
+25.1 +16.5 59 +29 +45 душно 1013.8 942.3
13 15.07 З 4 25 км 4/1 500 м
[Cu med, cong Ci sp]
+26.4 +13.3 44 +28 +39 жарко 1013.2 942.1
14 15.07 З 4 25 км 5/1 500 м
[Cu med, cong Ac lent Ci sp]
+27.5 +15.6 48 +30 +39 жарко 1012.6 941.8
15 15.07 З 4 25 км 6/1 500 м
[Cu med, cong Ac lent Ci sp]
+27.0 +17.2 55 +31 +37 душно 1012.5 941.6
16 15.07 З 5 25 км 6/1 500 м
[Cu med, cong Ac lent Ci sp]
+27.4 +15.5 48 +30 +34 жарко 1012.2 941.3
17 15.07 СЗ 5 25 км 5/0
[Ac lent Ci sp]
+26.3 +15.8 52 +29 +31 жарко 1012.2 941.1
18 15.07 З 5 25 км 4/0
[Ci sp]
+24.6 +17.2 63 +28 +30 душно 1012.7 941.1 +28.3
19 15.07 З 3 25 км ясно +21.8 +17.1 75 +26 +26 душно 1013.6 941.4
20 15.07 З 3 н/о н/о +19.3 +18.2 93 +22 +22 комфорт 1014.5 941.7
21 15.07 Ю 2 н/о н/о +16.5 +16.5 100 +17 +17 1015.8 942.2
22 15.07 Ю 2 н/о н/о +15.8 +15.8 100 +16 +16 1016.2 942.4
23 15.07 ЮВ 1 н/о н/о +15.8 +15.8 100 +16 +16 1016.4 942.5
00 16.07 В 1 н/о н/о +15.7 +15.7 100 +16 +16 1016.2 942.3
01 16.07 В 1 н/о н/о +15.9 +15.9 100 +17 +17 1015.7 941.9
02 16.07 ЮВ 1 н/о н/о +15.7 +15.7 100 +16 +16 1015.2 941.4
03 16.07 СВ 1 н/о н/о +15.3 +15.3 100 +16 +16 1014.9 941.0
04 16.07 СВ 1 н/о н/о +15.3 +15.3 100 +16 +16 1014.5 940.6
05 16.07 В 1 н/о н/о +15.1 +15.0 99 +16 +16 1014.6 940.7
06 16.07 В 2 н/о н/о +14.9 +14.8 99 +15 +15 1014.7 940.7 +14.6
07 16.07 СВ 2 30 км 4/0
[Ac trans Ci sp]
+15.8 +15.8 100 +16 +16 1014.6 940.8
08 16.07 С 3 30 км 4/0
[Ac trans Ci sp]
+20.1 +16.2 78 +23 +23 комфорт 1013.7 940.9
09 16.07 СВ 4 30 км 4/0 2000 м
[Ac trans Ci sp]
+22.9 +14.1 58 +26 +32 жарко 1012.9 940.9
10 16.07 В 3 30 км 4/0
[Ac trans Ci sp]
+24.6 +14.4 53 +27 +36 жарко 1012.5 940.9
11 16.07 В 3 30 км 5/0
[Ac trans Ci sp]
+27.2 +12.9 41 +29 +40 жарко 1011.8 940.8
12 16.07 З 2 30 км 5/0 2000 м
[Ac trans Ci sp]
+30.2 +13.3 36 +32 +47 жарко 1011.0 940.5
13 16.07 Ю 3 30 км 6/0
[Ac trans Cs]
+28.2 +11.6 36 +29 +41 жарко 1011.1 940.4
14 16.07 З 4 30 км 8/0
[Ac trans Cs]
+27.7 +15.7 48 +31 +39 душно 1010.9 940.2
15 16.07 З 5 30 км 8/1 500 м
[Cu med, cong Ac trans Cs]
+25.4 +17.5 62 +30 +34 душно 1011.5 940.3
16 16.07 СЗ 3 30 км 8/1 500 м
[Cu med, cong Ac trans Cs]
+26.4 +17.8 59 +31 +35 душно 1011.2 940.1
17 16.07 З 4 30 км 6/1 500 м
[Cu med, cong Ac trans Ci sp]
+26.2 +18.1 61 +31 +33 очень
душно
1011.1 940.0
18 16.07 З 4 30 км 6/1 500 м
[Cu med, cong Ac trans Ci sp]
+24.4 +18.7 71 +29 +30 душно 1011.7 940.1 +30.6
19 16.07 З 3 30 км 4/0
[Ac trans Ci sp]
+23.0 +18.9 78 +29 +30 очень
душно
1012.1 940.3
20 16.07 З 3 н/о н/о +19.7 +19.5 99 +23 +23 комфорт 1013.4 940.7
21 16.07 Ю 2 н/о н/о +17.8 +17.8 100 +18 +18 1014.5 941.2
22 16.07 ЮВ 2 н/о н/о +16.6 +16.6 100 +17 +17 1014.9 941.3
23 16.07 Ю 2 н/о н/о +15.8 +15.8 100 +16 +16 1015.1 941.3
00 17.07 Ю 2 н/о н/о +15.7 +15.7 100 +16 +16 1015.0 941.1
01 17.07 ЮВ 1 н/о н/о +15.2 +15.2 100 +16 +16 1014.9 940.9
02 17.07 Ю 3 н/о н/о +14.3 +14.3 100 +13 +13 1014.6 940.4
03 17.07 ЮВ 2 н/о н/о +14.3 +14.3 100 +14 +14 1014.3 940.2
04 17.07 Ю 1 н/о н/о +14.3 +14.3 100 +15 +15 1014.5 940.3
05 17.07 штиль 0 н/о н/о +14.3 +14.3 100 +14 +14 1014.7 940.6
06 17.07 ЮВ 1 н/о н/о +14.3 +14.3 100 +15 +15 1014.9 940.7 +14.0 0.1
07 17.07 штиль 0 8000 м дымка 9/9 210 м
[St]
+14.9 +14.9 100 +15 +15 1015.3 941.2
08 17.07 ЮВ 1 8000 м дымка 9/9 210 м
[St]
+15.4 +15.4 100 +16 +16 1015.5 941.5
09 17.07 ЮВ 2 12 км 6/6 210 м
[St]
+16.9 +16.9 100 +17 +21 1015.4 941.8
10 17.07 Ю 2 20 км 4/4 240 м
[St]
+19.9 +17.5 86 +23 +32 комфорт 1014.8 942.0
11 17.07 ЮЗ 3 20 км 1/1 240 м
[St]
+22.0 +17.4 75 +26 +40 душно 1014.3 942.2
12 17.07 ЮЗ 3 25 км 1/1 450 м
[Cu hum]
+22.8 +17.8 73 +28 +43 душно 1014.5 942.4
13 17.07 З 4 17 км 1/1 600 м
[Cu hum]
+23.5 +17.6 69 +27 +27 душно 1014.0 942.3
14 17.07 ЮЗ 4 н/о н/о +25.4 +17.8 63 +30 +30 душно 1013.7 942.2
15 17.07 З 5 17 км 1/1 600 м
[Cu hum]
+25.7 +17.6 61 +30 +37 душно 1013.3 942.1
16 17.07 З 4 17 км 1/1 600 м
[Cu med, cong]
+25.3 +17.6 62 +29 +35 душно 1013.4 942.0
17 17.07 З 4 17 км 1/1 600 м
[Cu med, cong]
+24.4 +17.6 66 +28 +32 душно 1013.8 942.0
18 17.07 З 4 17 км 1/1 600 м
[Cu med, cong]
+23.1 +17.7 72 +29 +30 очень
душно
1013.9 942.0 +27.3
19 17.07 З 4 н/о н/о +21.7 +16.9 74 +26 +26 душно 1014.6 942.3
20 17.07 Ю 2 н/о н/о +18.8 +16.3 85 +20 +20 1015.7 942.7
21 17.07 Ю 3 н/о н/о +16.1 +16.1 100 +16 +16 1017.3 943.5
22 17.07 ЮВ 3 н/о н/о +14.4 +14.4 100 +13 +13 1018.2 943.8
23 17.07 ЮВ 2 н/о н/о +13.4 +13.4 100 +13 +13 1018.5 943.9
00 18.07 ЮВ 3 н/о н/о +13.0 +12.9 99 +11 +11 1018.7 943.9
01 18.07 ЮВ 2 н/о н/о +12.6 +12.6 100 +12 +12 1018.4 943.6
02 18.07 ЮВ 2 н/о н/о +12.2 +12.2 100 +11 +11 1018.0 943.1
03 18.07 В 1 н/о н/о +12.9 +12.9 100 +13 +13 1017.6 942.8
04 18.07 С 2 н/о н/о +11.8 +11.8 100 +11 +11 1017.6 942.7
05 18.07 СВ 5 н/о н/о +13.6 +13.6 100 +12 +12 1017.4 942.8
06 18.07 СВ 6 н/о н/о +14.9 +14.9 100 +13 +13 1017.1 942.9 +11.3
07 18.07 СВ 5 30 км ясно +16.6 +14.8 89 +16 +17 1016.9 943.2
08 18.07 СВ 4 30 км ясно +18.9 +14.7 77 +20 +24 1016.6 943.4
09 18.07 СВ 4 30 км ясно +22.1 +14.2 61 +25 +32 комфорт 1015.9 943.4
10 18.07 СВ 4 30 км ясно +24.1 +14.9 56 +27 +36 жарко 1015.3 943.4
11 18.07 В 4 30 км ясно +26.4 +13.3 44 +28 +40 жарко 1014.6 943.3
12 18.07 С 4 30 км ясно +28.5 +13.8 41 +30 +44 жарко 1014.1 943.1
13 18.07 С 3 30 км ясно +29.2 +13.2 37 +31 +47 жарко 1013.4 942.8
14 18.07 СЗ 3 30 км ясно +29.7 +12.8 35 +31 +45 жарко 1012.7 942.4
15 18.07 СЗ 5 30 км ясно +29.9 +15.0 40 +32 +40 жарко 1012.3 942.0
16 18.07 СЗ 6 30 км ясно +29.0 +16.6 47 +32 +36 душно 1012.2 941.8
17 18.07 СЗ 6 30 км ясно +28.6 +16.0 46 +32 +32 душно 1012.0 941.5
18 18.07 СЗ 6 30 км ясно +27.1 +16.1 51 +30 +31 душно 1012.1 941.3 +31.2
19 18.07 СЗ 6 н/о н/о +25.2 +15.6 55 +28 +28 жарко 1012.7 941.3
20 18.07 З 3 н/о н/о +22.7 +15.7 65 +27 +27 душно 1013.9 941.9
21 18.07 Ю 3 н/о н/о +19.2 +15.4 79 +21 +21 комфорт 1015.3 942.5
22 18.07 Ю 2 н/о н/о +18.1 +16.0 88 +19 +19 1016.2 942.8
23 18.07 ЮВ 2 н/о н/о +17.9 +15.6 86 +18 +18 1016.2 942.8
00 19.07 В 2 н/о н/о +18.3 +15.1 82 +19 +19 1016.0 942.7
01 19.07 В 2 н/о н/о +19.2 +15.2 78 +21 +21 комфорт 1015.5 942.4
02 19.07 СВ 3 н/о н/о +19.6 +14.9 74 +22 +22 комфорт 1014.8 941.9
03 19.07 СВ 3 н/о н/о +19.4 +13.9 70 +21 +21 комфорт 1014.5 941.6
04 19.07 СВ 4 н/о н/о +20.3 +10.8 54 +22 +22 комфорт 1013.9 941.2
05 19.07 СВ 5 н/о н/о +20.1 +11.2 57 +22 +22 комфорт 1013.8 941.1
06 19.07 СВ 4 н/о н/о +20.5 +11.0 54 +22 +22 комфорт 1013.8 941.2 +17.5
07 19.07 В 2 30 км ясно +21.6 +12.5 56 +24 +24 комфорт 1013.9 941.5
08 19.07 С 3 30 км ясно +23.5 +13.3 53 +26 +30 жарко 1013.6 941.8
09 19.07 С 2 30 км ясно +25.3 +13.7 49 +28 +37 жарко 1013.1 941.6
10 19.07 СЗ 2 30 км ясно +27.7 +13.9 43 +30 +44 жарко 1012.4 941.6
11 19.07 ЮЗ 2 30 км ясно +29.2 +14.8 42 +32 +49 душно 1012.0 941.5
12 19.07 ЮЗ 3 30 км ясно +30.2 +12.4 34 +31 +47 жарко 1011.9 941.5
13 19.07 СЗ 4 30 км 1/1 600 м
[Cu med, cong]
+31.3 +13.7 34 +33 +44 жарко 1011.2 941.3
14 19.07 З 5 30 км 1/1 600 м
[Cu med, cong]
+30.8 +15.3 39 +33 +41 душно 1010.6 940.7
15 19.07 З 5 30 км 3/3 750 м
[Cu med, cong]
+30.6 +16.9 44 +34 +39 очень
душно
1010.6 940.5
16 19.07 З 6 30 км 3/3 750 м
[Cu med, cong]
+29.2 +18.4 52 +34 +37 очень
душно
1010.9 940.5
17 19.07 З 6 30 км 3/3 750 м
[Cu med, cong]
+27.5 +17.5 54 +32 +33 очень
душно
1011.1 940.4
18 19.07 З 6 30 км 3/3 750 м
[Cu med, cong]
+25.6 +16.0 55 +29 +30 душно 1011.5 940.4 +32.5
19 19.07 СЗ 5 н/о н/о +23.4 +14.3 57 +27 +27 душно 1012.5 940.7
20 19.07 З 4 н/о н/о +20.2 +12.4 61 +22 +22 комфорт 1013.6 941.0
21 19.07 З 3 н/о н/о +18.7 +12.0 65 +20 +20 1014.7 941.7
22 19.07 З 2 н/о н/о +17.8 +12.4 71 +18 +18 1015.3 942.0
23 19.07 Ю 1 н/о н/о +16.5 +13.3 81 +17 +17 1015.7 942.1
00 20.07 штиль 0 н/о н/о +16.3 +13.1 81 +16 +16 1015.8 942.0
01 20.07 СЗ 2 н/о н/о +15.5 +13.3 87 +15 +15 1016.1 942.1
02 20.07 СЗ 1 н/о н/о +15.6 +13.6 88 +16 +16 1016.1 942.2
03 20.07 СЗ 2 н/о н/о +15.1 +14.8 98 +15 +15 1016.0 942.0
05 20.07 СЗ 3 н/о н/о +13.6 +13.6 100 +12 +12 1016.6 942.1
06 20.07 С 1 н/о н/о +16.2 +16.0 99 +17 +17 1016.4 942.5 +13.2
07 20.07 С 1 н/о н/о +17.1 +16.0 93 +18 +18 1016.4 942.9
08 20.07 СЗ 2 н/о н/о +18.8 +15.0 79 +20 +20 1016.4 943.3
09 20.07 СЗ 3 н/о н/о +21.2 +14.5 66 +24 +24 комфорт 1016.0 943.4
10 20.07 СЗ 4 н/о н/о +23.0 +14.3 58 +27 +27 душно 1015.8 943.6
11 20.07 З 4 н/о н/о +24.3 +15.0 56 +27 +27 жарко 1015.6 943.8
12 20.07 СЗ 4 н/о н/о +26.5 +15.4 51 +30 +30 душно 1015.1 943.7
13 20.07 СЗ 4 н/о н/о +27.4 +15.1 47 +30 +30 жарко 1014.8 943.7
14 20.07 З 4 н/о н/о +27.3 +15.1 47 +30 +30 душно 1014.6 943.6
15 20.07 З 4 н/о н/о +27.8 +16.0 49 +31 +31 душно 1014.2 943.4
16 20.07 З 6 н/о н/о +27.6 +17.1 53 +32 +32 очень
душно
1014.3 943.3
17 20.07 З 7 н/о н/о +25.2 +17.0 60 +29 +29 душно 1014.7 943.3
18 20.07 З 7 н/о н/о +23.3 +16.8 67 +28 +28 душно 1015.7 943.6 +29.4
19 20.07 СЗ 6 н/о н/о +21.1 +15.5 70 +24 +24 комфорт 1016.5 944.0
20 20.07 СЗ 6 н/о н/о +18.6 +14.6 78 +19 +19 1017.5 944.2
21 20.07 СЗ 3 н/о н/о +16.9 +14.3 85 +17 +17 1018.9 945.1
22 20.07 СЗ 3 н/о н/о +15.3 +14.4 94 +15 +15 1019.7 945.5
23 20.07 СЗ 3 н/о н/о +14.5 +14.5 100 +13 +13 1020.0 945.6
00 21.07 Ю 2 н/о н/о +14.8 +14.8 100 +14 +14 1020.0 945.5
01 21.07 С 1 н/о н/о +14.7 +14.7 100 +15 +15 1019.7 945.3
02 21.07 СВ 2 н/о н/о +14.5 +14.5 100 +14 +14 1019.6 945.1
03 21.07 С 4 н/о н/о +14.2 +13.5 96 +13 +13 1019.6 945.0
04 21.07 С 3 н/о н/о +15.0 +13.6 91 +14 +14 1019.1 944.8
05 21.07 С 4 н/о н/о +14.7 +14.1 96 +13 +13 1019.0 944.7
06 21.07 С 3 н/о н/о +15.3 +13.8 91 +15 +15 1019.0 944.8 +13.8
07 21.07 СВ 2 н/о н/о +18.5 +15.2 81 +20 +20 1018.7 945.2
08 21.07 ЮВ 2 н/о н/о +20.3 +16.1 77 +24 +24 комфорт 1018.5 945.6
09 21.07 С 2 н/о н/о +22.4 +15.5 65 +26 +26 жарко 1018.1 945.7
10 21.07 С 2 н/о н/о +24.4 +16.2 60 +28 +28 душно 1018.0 946.0
11 21.07 Ю 3 н/о н/о +26.7 +16.8 55 +30 +30 душно 1017.5 945.9
12 21.07 Ю 2 н/о н/о +28.4 +16.3 48 +32 +32 душно 1016.6 945.6
13 21.07 Ю 2 н/о н/о +30.3 +14.3 38 +32 +32 жарко 1016.0 945.4
14 21.07 З 3 н/о н/о +30.6 +16.4 42 +34 +34 очень
душно
1015.5 945.1
15 21.07 СЗ 4 н/о н/о +31.1 +15.6 39 +34 +34 душно 1015.1 944.9
16 21.07 З 4 н/о н/о +30.7 +16.0 41 +34 +34 очень
душно
1014.8 944.5

 

Местоположение метеостанции Визеу (Португалия): широта 40.72 долгота -7.88 высота над уровнем моря 644 м.

В архиве по умолчанию представлена погода в Визеу за последнюю неделю. Архивные данные за месяц целиком и за предыдущие месяцы, начиная с января 2011 года, Вы можете получить, выбрав интересующий диапазон дат из раскрывающегося списка и нажав кнопку "Ввод!".


*Определитесь, кто Вы:
робот инопланетянин человек

Внимание! Время в таблицах - всемирное. Для получения местного времени необходимо прибавить поправку, которая равна 0 ч.

Смотрите также архив погоды в соседних городах и на ближайших метеорологических станциях:

Погода в Обсерватории Penhas Douradas (Португалия) (43 км)
Погода в Вила-Реале (Португалия) (63 км)
Погода в Оваре (Португалия) (67 км)
Погода в Коимбре (Португалия) (81 км)
Погода в Порту (Португалия) (88 км)
Погода в Кастело Бранко (Португалия) (105 км)
Погода в Саэлисес-эль-Чико (Испания) (108 км)
Погода в Витигудино (Испания) (125 км)
Погода в Виана-ду-Каштелу (Португалия) (127 км)
Погода в Монте-Реале (Португалия) (130 км)

Пояснения к столбцам:

Ветер - указаны скорость ветра в м/с - средняя за 10 мин, порывы в срок и между сроками (в фигурных скобках) и направление, откуда дует ветер: С - северный, СВ - северо-восточный, В - восточный, ЮВ - юго-восточный, Ю - южный, ЮЗ - юго-западный, З - западный, СЗ - северо-западный.
Видимость - горизонтальная дальность видимости в метрах или километрах. При видимости от 1 до 10 км при отсутствии осадков обычно наблюдается дымка, при ухудшении видимости до 1 км и менее - туман. В сухую погоду видимость может ухудшаться дымом, пылью или мглою.
Явления - указаны атмосферные явления, наблюдавшиеся в срок или в последний час перед сроком; фигурными скобками обозначены явления, наблюдавшиеся между сроками (за 1-3 часа до срока); квадратными скобками обозначены град или гололедные отложения с указанием их диаметра в мм.
Облачность - указаны через наклонную черту общая и нижняя облачность в баллах и высота нижней границы облаков в метрах; квадратными скобками обозначены формы облаков: Ci - перистые, Cs - перисто-слоистые, Cc - перисто-кучевые, Ac - высококучевые, As - высокослоистые, Sc - слоисто-кучевые, Ns - слоисто-дождевые, Cu - кучевые, Cb - кучево-дождевые. Подробнее классификацию облаков см. в Атласе облаков (PDF).
T - Температура воздуха - температура, измеренная на высоте 2 м над землей.
Td - Температура точки росы - температура, при понижении до которой содержащийся в воздухе водяной пар достигнет насыщения.
f - Относительная влажность воздуха - влажноcть воздуха, измеренная на высоте 2 м над землей.
Te - Эффективная температура - температура, которую ощущает одетый по сезону человек в тени. Характеристика душности погоды. При расчете учитывается влияние влажности воздуха и скорости ветра на теплоощущения человека.
Tes - Эффективная температура на солнце - температура, которую ощущает человек, с поправкой на солнечный нагрев. Характеристика знойности погоды. Зависит от высоты солнца над горизонтом, облачности и скорости ветра. Ночью, в пасмурную погоду, а также при ветре 12 м/с и более поправка равна нулю.
P - Атмосферное давление - приведенное к уровню моря атмосферное давление.
Po - Атмосферное давление - измеренное на уровне метеостанции атмосферное давление.
Tmin - Минимальная температура - минимум температуры воздуха на высоте 2 м над землей.
Tmax - Максимальная температура - максимум температуры воздуха на высоте 2 м над землей.
R - Количество осадков - Количество выпавших осадков за период времени, мм. При наведении курсора мыши на число - период времени, за который выпало указанное количество осадков.
R24 - Количество осадков - Количество выпавших осадков за 24 часа, мм.
S - Снежный покров - Высота снежного покрова, см. При наведении курсора мыши на число - состояние снежного покрова и степень покрытия местности в баллах.